Theta_e
300 301 302 302 301 301 301 300 300 301 300 300 301 302 302 301 301 302 304 306 303 303 306 305 304 304 303 304 303 302 303 303 303 303 303 303 304 305 306 307 307 308 310 310 312 314 315 316 318 319 319 319 320 320 320 316 313 314 313 314 313 312 315 323 331 334 333 333 334 335 334 333 333 333 334 334 334 335 334 333 334 334 334 334 334 334
301 302 302 301 300 300 300 300 300 301 300 300 300 301 301 300 300 300 302 305 304 303 304 304 304 304 302 303 303 302 303 302 301 302 302 303 304 305 305 305 306 307 307 308 309 310 312 314 315 317 318 319 319 319 318 314 312 312 313 316 316 315 316 322 330 332 333 332 332 333 333 333 332 331 332 334 334 334 333 333 333 333 334 334 334 334
302 302 301 301 300 299 300 300 300 301 300 300 300 300 300 299 299 301 301 302 303 304 305 303 303 303 302 303 303 302 302 302 301 302 302 303 303 304 305 305 305 306 306 307 307 308 308 310 312 313 315 316 317 317 314 312 312 313 315 319 321 322 323 327 330 332 332 332 331 331 332 332 330 327 327 329 332 333 333 333 333 333 333 333 334 334
303 302 300 299 299 300 300 300 300 300 300 300 300 299 299 298 298 300 301 300 301 304 305 303 301 301 301 302 303 301 300 301 302 302 303 303 303 304 304 305 305 305 305 306 306 307 307 307 308 310 312 313 314 315 313 311 311 313 317 320 323 326 328 330 331 332 332 331 331 331 331 331 328 324 322 323 325 329 331 332 332 333 333 333 333 333
302 301 298 299 300 300 300 300 300 300 300 299 300 299 299 299 299 299 300 300 302 303 303 302 301 302 302 303 304 302 301 301 301 301 301 302 302 303 304 304 304 304 305 305 306 306 307 307 308 309 310 311 313 313 312 311 311 313 316 320 324 327 328 329 330 331 331 330 330 330 329 329 326 321 318 316 318 321 324 326 328 329 331 332 332 333
300 299 298 301 301 300 300 301 300 300 300 300 300 300 299 300 299 299 300 301 302 302 302 302 302 305 307 305 304 303 302 302 301 301 301 301 302 303 303 304 304 304 304 304 305 306 306 307 308 309 310 310 312 312 312 312 312 313 316 318 321 324 326 328 330 330 329 328 326 325 324 323 320 316 313 311 311 312 314 316 318 321 323 326 328 330
300 299 298 301 302 301 301 300 300 299 300 301 301 300 299 299 300 299 300 301 302 302 301 302 303 305 306 306 307 305 304 303 302 301 301 300 301 302 303 304 304 304 304 305 305 305 306 307 308 309 310 310 311 311 311 311 312 313 314 315 316 317 319 321 321 321 320 318 315 314 313 312 310 309 308 308 308 308 309 309 310 312 314 316 319 322
301 300 299 300 301 302 301 300 301 299 301 302 302 303 303 301 300 300 299 300 301 301 301 301 303 303 303 304 306 305 305 306 304 302 301 299 300 301 302 304 305 305 304 305 305 305 305 306 308 308 309 309 309 309 310 310 311 311 311 311 311 311 310 310 309 308 308 307 307 306 306 306 306 306 306 306 306 306 307 307 307 308 309 310 311 314
301 301 300 300 300 300 299 300 301 300 302 302 300 302 303 301 300 300 300 300 300 301 301 301 302 303 303 302 301 301 303 305 304 304 302 300 299 300 302 303 305 305 304 304 304 305 305 306 307 308 308 308 307 307 308 308 309 309 309 310 310 310 310 310 310 308 308 307 307 306 306 306 306 306 306 305 305 305 305 305 306 306 307 307 308 310
298 299 299 300 300 299 299 301 302 301 301 300 299 300 300 300 299 299 300 300 299 300 301 302 302 302 303 302 301 300 301 302 302 302 301 299 298 299 301 303 304 304 303 303 304 304 305 306 307 307 307 307 306 306 307 307 308 308 309 309 309 310 311 311 311 311 310 309 308 308 307 307 306 306 306 305 305 305 305 305 305 305 305 305 306 307
297 297 298 299 299 299 300 300 300 300 300 298 299 301 300 299 299 298 299 299 299 301 301 301 301 302 302 302 301 301 303 302 300 301 301 299 298 299 300 301 302 303 302 302 303 304 305 306 306 307 306 306 306 306 306 306 307 307 307 307 307 307 308 308 308 308 308 307 307 307 307 307 306 306 305 305 305 305 305 305 304 304 304 304 304 304
298 298 298 298 298 298 299 298 297 298 298 298 300 302 301 300 300 299 299 299 300 301 301 301 301 300 301 302 300 300 303 303 301 301 303 301 299 298 299 300 301 301 301 301 302 303 304 305 305 305 305 306 305 305 305 305 305 305 305 305 305 305 305 306 306 305 305 305 305 305 306 306 306 306 306 305 305 305 304 304 304 304 304 303 303 303
298 298 298 298 298 297 298 299 298 296 296 298 300 301 301 301 301 300 299 300 300 300 300 301 300 299 300 300 300 299 301 302 299 299 301 301 299 298 299 300 300 300 300 301 302 303 304 304 304 304 304 304 304 304 304 304 304 304 304 304 304 304 304 304 304 304 304 304 304 304 304 304 305 305 306 306 305 305 305 304 303 303 303 303 303 303
298 297 297 298 298 298 298 300 299 298 297 297 299 300 300 301 301 299 299 300 298 299 299 298 299 299 299 300 300 299 299 299 297 295 297 298 298 298 299 299 299 299 299 300 301 302 303 303 303 303 303 303 303 303 303 303 303 303 303 303 303 303 303 303 303 303 303 303 302 302 302 303 303 303 304 304 304 305 304 304 304 303 303 303 303 303
297 297 297 298 298 298 298 299 299 299 298 297 298 300 299 300 301 299 299 299 298 299 298 297 299 300 301 302 302 300 299 298 297 297 297 297 297 298 298 298 299 299 299 300 301 302 302 302 302 302 302 302 302 302 302 302 302 302 302 301 302 302 301 301 302 301 301 301 301 301 301 301 301 302 302 302 302 303 303 303 303 303 303 303 302 302
297 297 297 297 297 298 298 298 298 299 298 297 297 298 299 300 300 298 298 298 298 298 297 298 300 300 300 300 300 300 299 298 298 298 297 297 297 297 297 298 299 299 299 300 300 301 301 301 301 301 301 301 301 301 301 301 301 301 301 301 301 301 301 300 301 301 301 301 300 300 300 300 300 300 301 301 301 301 301 301 301 301 301 301 301 302
297 296 296 295 295 297 298 298 298 299 299 299 297 297 298 298 298 299 298 297 296 296 297 299 300 299 298 299 299 299 300 298 298 298 296 296 296 297 297 298 299 299 299 299 300 300 300 300 300 300 300 300 300 300 300 299 300 300 300 300 300 300 300 299 299 299 299 299 298 298 298 298 298 298 299 299 299 299 299 299 299 300 300 300 300 300
296 295 296 295 295 296 295 295 297 298 298 300 299 298 297 296 298 298 298 298 298 295 296 299 300 298 298 299 300 300 300 300 300 299 297 296 296 296 297 298 298 299 299 299 299 299 299 299 299 299 299 299 299 299 299 299 299 299 299 299 299 298 298 297 297 297 297 297 296 296 296 296 296 296 297 297 297 297 297 297 297 298 298 298 298 298
294 294 295 294 294 295 294 295 297 296 296 297 297 298 298 298 298 298 297 299 299 297 296 297 297 297 297 298 299 299 299 299 300 299 298 298 297 295 296 297 298 298 298 298 298 298 299 299 298 298 298 297 297 297 297 297 297 297 297 296 297 296 296 296 296 295 296 296 296 295 296 296 296 296 296 296 296 296 296 296 296 296 297 297 297 297
293 293 294 293 293 293 294 296 296 296 296 296 295 297 298 298 297 298 297 298 299 298 298 297 296 297 297 297 298 299 299 298 299 300 300 299 296 295 295 297 297 297 297 297 298 298 298 298 297 297 296 295 295 295 295 295 295 295 295 295 295 295 295 295 295 294 295 295 295 295 295 295 295 295 295 295 295 295 295 296 296 296 296 296 296 296
293 293 293 294 293 293 294 295 295 295 296 296 295 295 296 296 296 296 297 297 298 297 297 297 297 298 298 296 297 297 298 297 298 301 302 298 294 295 296 296 296 297 296 297 297 297 296 296 295 294 294 294 294 293 293 293 293 294 294 294 294 294 295 295 294 294 295 294 294 294 294 294 294 294 294 294 294 294 294 294 294 294 294 295 295 295
292 292 292 293 293 292 293 294 294 294 294 294 295 295 295 296 296 296 296 297 296 296 297 297 296 298 299 298 298 298 298 297 297 299 300 297 294 295 295 295 296 296 296 296 296 295 295 294 293 293 292 292 292 292 292 292 293 294 294 294 294 294 294 294 293 294 294 293 293 293 293 293 293 293 293 293 293 293 293 293 293 293 293 293 293 293
291 291 290 291 292 292 292 293 293 292 291 290 292 293 294 295 295 296 296 297 295 294 296 296 296 298 298 296 297 299 298 296 294 295 296 295 294 294 294 295 296 296 296 295 294 293 293 292 292 292 292 292 292 292 292 292 293 293 293 293 293 293 293 293 292 292 292 292 292 292 292 292 292 292 292 292 292 292 292 292 292 292 292 292 292 292
289 289 288 289 290 290 291 292 291 290 289 289 290 291 292 293 293 294 294 295 295 294 295 296 296 298 296 293 294 295 294 292 291 293 294 293 294 295 294 294 295 294 294 293 292 292 291 291 292 292 291 291 292 292 292 292 292 292 292 292 292 292 292 292 291 291 291 291 291 291 291 291 291 291 291 291 291 291 291 291 291 291 291 291 291 291
288 287 287 287 287 287 289 290 290 290 290 289 290 291 291 290 290 291 291 290 290 293 296 295 295 298 296 294 294 294 294 294 292 292 293 293 293 294 294 294 294 293 292 292 291 291 291 291 291 291 291 291 291 292 291 291 291 291 291 291 291 291 291 291 291 291 291 291 291 290 290 290 290 291 291 291 291 291 291 291 291 291 290 290 290 290
286 287 287 287 287 286 287 288 290 290 290 289 289 290 289 289 289 290 291 290 289 293 295 294 295 297 297 295 295 294 294 294 292 290 291 293 293 293 293 293 293 292 292 291 291 291 291 291 291 291 291 291 291 292 291 291 291 291 291 291 291 291 291 291 290 290 290 290 290 290 290 290 290 290 290 290 290 290 290 290 290 290 290 290 290 290
286 286 287 287 287 287 287 288 288 289 289 289 289 289 289 288 289 290 291 291 291 294 294 294 295 296 296 296 295 293 291 292 292 290 290 290 291 292 292 292 292 291 291 291 291 291 291 291 291 291 291 291 291 291 291 291 291 291 291 291 291 291 291 290 290 290 290 290 290 290 290 290 290 290 290 290 290 290 290 290 290 290 290 290 290 290
285 285 285 285 286 286 286 287 287 287 288 288 289 289 288 288 289 289 290 290 292 292 293 294 294 294 295 295 294 293 292 292 292 291 289 289 289 290 291 291 291 290 290 291 291 291 291 291 291 291 291 291 291 291 291 291 291 291 291 291 291 291 290 290 290 290 290 289 289 289 289 289 289 289 289 289 289 290 290 290 290 290 290 290 290 290
284 283 284 285 285 285 286 286 286 286 287 288 288 288 288 288 288 288 289 289 290 291 291 292 291 291 294 295 293 293 291 290 290 290 290 289 289 289 290 290 290 290 290 290 290 290 290 291 291 291 291 291 291 291 291 291 291 291 291 291 291 291 290 290 290 290 289 289 289 289 289 289 289 289 289 289 289 289 289 289 289 289 289 290 290 290
283 282 283 284 284 285 285 285 285 285 286 287 288 288 288 288 287 288 288 289 289 289 290 291 290 290 293 293 292 290 289 288 288 289 289 289 289 289 289 289 289 289 290 290 290 290 290 290 290 290 291 291 291 291 291 291 291 291 291 291 291 291 290 290 289 289 289 289 289 289 289 289 289 289 289 289 289 289 289 289 289 289 289 289 289 289
282 282 283 283 283 283 283 284 284 285 285 286 286 287 288 287 287 287 287 288 289 289 289 290 290 290 291 291 290 288 288 288 288 289 289 289 289 289 288 288 288 289 289 289 290 290 290 290 290 290 290 290 290 291 291 291 291 291 291 291 291 290 290 290 289 289 289 289 289 289 289 289 289 289 289 289 289 288 288 288 288 288 288 288 288 288
282 282 282 282 281 281 282 283 283 284 285 285 285 286 287 287 287 287 287 288 288 288 289 289 290 291 291 290 289 288 287 287 286 287 287 288 288 289 287 287 288 288 288 289 289 289 289 289 290 290 290 290 290 290 290 291 291 291 291 290 290 290 290 290 289 289 289 289 289 289 289 289 288 288 288 288 288 288 288 288 288 288 288 287 287 287
281 281 281 281 281 281 282 283 283 284 283 283 284 285 286 286 287 287 287 288 288 288 289 289 290 291 291 291 290 288 285 283 283 282 283 285 286 287 287 286 286 287 287 288 288 288 289 289 289 289 289 289 289 289 290 290 290 291 291 290 290 290 290 290 289 289 289 289 289 289 289 288 288 288 288 287 287 287 287 287 287 287 287 287 287 287
281 281 281 281 280 281 282 283 283 282 281 282 285 286 285 285 286 286 287 287 287 287 288 289 289 288 289 290 289 286 283 281 280 279 280 281 282 284 285 285 285 285 286 287 288 288 288 288 289 289 289 289 289 289 289 289 289 290 290 290 290 289 289 289 289 288 288 288 288 288 288 288 288 288 287 287 286 286 286 286 286 286 286 286 286 286
280 280 280 281 281 281 282 282 281 280 281 283 285 285 285 285 285 286 286 284 282 282 283 285 285 283 285 287 285 283 281 280 280 279 279 280 280 281 283 284 285 285 286 286 287 287 288 288 288 288 289 289 289 289 289 289 288 289 290 290 290 289 289 289 288 288 288 288 288 288 287 287 287 287 287 287 286 286 286 286 286 286 286 286 286 286
280 280 280 280 280 280 281 281 280 280 282 283 284 283 283 284 285 286 287 281 276 277 278 280 281 280 281 284 283 282 281 281 280 279 279 279 279 280 281 281 283 285 285 285 286 286 287 287 288 288 288 289 289 289 289 289 288 288 289 290 290 289 289 288 288 287 287 287 287 287 287 287 287 287 287 287 286 286 285 286 286 286 286 286 286 286
280 280 280 280 280 280 280 280 280 281 282 283 283 279 276 277 278 280 284 281 274 274 276 276 277 276 277 279 281 281 282 283 283 280 278 278 278 278 279 279 281 283 284 284 284 284 285 286 287 288 288 288 289 289 289 288 288 288 289 290 290 290 289 288 288 287 287 287 287 286 286 286 286 286 287 286 286 286 285 285 285 285 286 286 286 286
280 280 280 280 280 280 280 280 280 280 280 282 280 274 270 271 271 272 280 281 272 271 273 273 273 273 273 275 277 278 282 285 284 279 277 276 277 277 278 279 280 283 284 285 285 285 285 286 286 287 288 288 288 288 288 288 288 288 288 289 289 289 289 288 288 287 287 287 286 286 286 286 286 286 286 286 286 286 285 285 285 285 285 285 285 285
279 280 280 280 280 280 280 279 279 279 280 279 274 269 268 270 268 270 281 282 271 268 271 271 270 270 271 271 273 276 282 285 282 277 274 274 275 276 276 277 279 281 283 284 285 286 286 286 286 287 287 287 287 288 287 287 287 287 287 288 289 289 289 288 288 287 287 287 286 286 286 286 286 286 286 286 286 286 285 285 285 285 285 285 285 285
279 279 280 280 280 280 280 279 279 280 279 271 266 265 267 267 268 275 284 280 268 266 269 269 268 268 268 269 271 274 278 280 277 274 272 273 274 275 275 276 277 279 280 282 283 284 284 285 285 286 287 287 287 287 287 287 287 286 287 287 288 288 288 288 287 287 287 286 286 286 286 286 286 286 286 286 286 286 285 285 285 285 285 285 285 285
279 278 279 280 279 280 280 280 280 280 273 264 263 264 265 268 274 280 280 270 263 264 267 266 266 266 266 267 269 270 271 272 271 271 271 272 273 274 275 275 276 277 278 279 280 281 283 284 285 285 286 286 286 286 286 286 286 286 286 286 286 286 286 286 286 286 286 286 285 285 285 285 285 285 285 285 286 285 285 285 285 285 285 285 285 285
275 275 278 279 278 280 280 279 280 278 268 260 262 265 266 273 279 275 267 262 261 264 265 264 264 265 264 265 266 267 268 268 268 269 270 270 271 272 274 275 276 277 278 279 280 281 281 282 283 283 284 284 285 285 285 285 285 285 285 285 285 285 285 285 285 285 284 284 284 285 285 285 285 285 285 285 285 285 285 285 285 285 285 285 285 284
270 272 275 274 272 276 280 279 279 276 266 260 264 266 265 269 269 263 260 262 263 262 263 263 263 263 263 263 264 265 266 266 267 268 268 268 269 270 272 273 275 276 277 278 279 280 280 281 282 283 283 283 283 284 284 284 284 284 284 283 283 283 283 283 283 283 283 284 284 284 285 285 285 285 285 285 285 285 285 285 284 284 284 284 284 284
267 270 273 270 268 272 277 275 271 267 262 261 263 263 262 262 261 260 261 262 261 260 261 262 262 261 262 262 262 263 264 265 266 267 267 267 268 269 271 272 273 274 275 276 278 279 279 281 281 282 283 283 283 283 283 284 284 284 284 284 283 283 284 284 283 283 283 284 284 284 284 284 284 284 284 285 285 284 285 284 284 284 284 284 284 284
266 265 267 267 265 266 269 268 264 261 261 261 261 261 260 260 260 260 260 260 260 260 260 260 260 260 261 261 261 262 263 263 265 266 266 266 267 268 269 270 272 273 274 275 277 278 279 280 280 281 282 282 282 283 283 284 284 284 284 284 284 283 283 284 284 284 283 283 284 284 284 284 284 284 284 284 284 284 284 284 283 283 283 283 283 283
263 262 263 265 264 264 264 263 262 262 262 261 260 260 260 259 259 259 259 259 259 259 258 259 259 259 260 260 261 261 262 262 264 266 266 267 267 268 269 270 270 272 273 274 275 276 277 278 278 279 280 281 282 282 282 283 283 284 283 283 283 283 283 283 283 283 283 283 283 283 283 283 283 283 283 283 283 283 283 283 283 283 283 283 283 283
261 262 263 263 264 265 265 262 261 262 261 260 260 260 259 259 259 258 258 258 258 258 258 258 258 259 259 260 260 260 261 262 264 265 266 267 267 268 269 269 270 271 272 273 274 274 274 275 276 277 279 280 281 281 282 282 282 282 282 282 282 283 283 282 282 282 282 283 283 283 283 283 283 283 282 282 282 282 282 282 282 282 282 282 282 282
260 261 262 261 261 264 263 260 259 260 261 260 259 259 258 258 258 258 258 258 258 258 258 258 258 258 259 259 259 260 262 262 263 264 265 265 266 267 268 269 269 270 271 271 272 273 273 274 275 276 277 278 279 280 280 281 281 281 281 281 281 282 282 282 282 282 282 282 282 282 282 282 282 282 282 282 282 282 282 282 282 282 282 282 282 282
258 259 259 259 260 262 262 260 259 260 261 261 259 258 258 258 257 257 258 258 258 258 258 258 259 258 258 259 259 260 261 262 263 263 264 264 265 266 266 267 268 268 269 269 270 271 273 273 274 275 276 277 278 278 279 279 280 280 280 280 280 280 281 281 281 281 281 281 281 281 281 281 281 281 281 281 281 281 282 282 281 281 281 281 281 281
257 257 257 259 261 262 260 259 258 259 261 261 259 258 257 257 257 257 257 257 258 258 258 258 258 258 258 259 259 259 260 261 262 263 263 263 264 265 265 266 267 268 268 268 269 269 270 271 272 273 275 276 276 277 278 278 278 278 279 279 279 280 280 280 280 280 280 281 281 281 281 281 281 281 281 281 281 281 281 281 281 281 281 281 281 281
256 256 256 258 259 260 258 257 257 257 258 258 258 257 257 257 257 257 257 257 257 257 257 257 258 258 258 259 259 259 260 261 261 262 263 263 263 264 265 266 267 268 268 268 268 268 269 270 271 272 273 274 275 276 276 276 277 277 278 278 278 279 279 279 279 279 280 280 280 280 280 280 280 280 280 281 281 281 281 281 281 281 280 280 280 280
Wind_Speed
3 1 3 5 7 10 10 10 11 3 4 0 2 4 5 6 8 2 1 5 2 2 8 8 11 13 12 8 7 18 21 16 19 20 19 22 24 26 27 28 29 31 34 34 33 32 31 32 34 38 41 44 46 44 37 28 23 25 28 28 27 27 26 26 28 29 29 27 26 28 27 22 20 20 20 20 19 18 21 24 26 28 28 28 29 27
3 4 7 9 10 9 8 8 7 6 4 4 4 5 6 7 8 3 1 4 2 1 7 5 8 14 13 7 6 14 15 12 16 17 18 23 25 27 28 29 29 29 32 33 32 31 29 30 31 32 34 36 39 39 37 32 26 25 27 27 27 27 26 24 25 27 26 24 21 22 22 19 18 19 19 19 17 15 16 17 18 21 20 20 21 21
0 7 10 9 7 5 6 6 6 9 8 5 4 4 7 7 4 4 3 3 2 3 5 3 5 13 13 7 7 10 11 15 20 20 22 25 26 29 29 26 24 23 25 29 31 31 29 29 29 29 28 28 30 32 34 33 30 27 27 28 27 27 26 24 24 25 24 24 21 19 20 19 18 18 19 20 19 17 17 17 16 15 15 15 16 18
2 7 9 7 8 6 6 7 6 6 6 6 5 4 9 8 2 4 4 2 3 4 5 4 5 10 10 6 7 12 17 21 23 24 27 27 27 31 31 27 22 19 19 20 24 28 29 29 28 28 27 26 28 30 32 33 32 30 28 29 28 27 26 25 26 25 24 24 22 21 21 21 19 18 18 19 20 20 20 21 20 17 16 17 18 18
7 4 0 4 8 8 6 5 6 5 5 7 7 7 11 11 7 7 3 3 3 4 4 4 7 9 9 7 7 11 16 18 21 23 25 28 29 30 31 30 27 23 20 18 17 20 24 28 28 28 26 26 28 31 32 34 35 33 31 30 30 29 27 27 27 26 25 23 22 22 22 21 20 18 18 18 19 21 22 23 23 22 21 21 20 21
11 7 3 4 4 7 7 6 8 8 5 5 8 14 16 13 10 8 1 4 4 5 4 3 4 7 6 5 7 8 8 10 15 15 18 27 29 28 31 34 33 29 24 20 17 15 18 23 27 27 27 28 29 32 33 34 35 34 33 31 30 29 28 27 26 26 25 23 22 22 21 21 20 20 19 19 18 18 19 21 22 23 23 24 24 24
6 7 7 5 5 6 7 7 8 9 5 5 6 11 15 13 11 9 4 3 3 5 2 3 4 7 5 4 7 6 5 9 10 8 13 22 24 26 30 33 34 31 26 24 20 17 16 19 25 27 29 31 32 33 34 33 33 33 32 31 30 28 26 25 24 23 23 21 20 20 19 19 19 20 20 20 19 18 18 19 20 20 21 23 23 25
3 5 6 7 7 7 7 8 8 11 7 5 3 6 10 12 13 12 8 6 6 5 3 2 4 6 8 7 4 4 4 9 10 9 11 16 20 25 28 30 32 31 28 26 24 21 18 18 23 27 30 32 33 34 34 33 32 32 31 30 29 28 25 22 20 19 18 19 18 18 18 18 18 19 19 20 21 21 20 19 20 20 20 21 22 23
4 6 8 9 7 7 8 6 8 13 8 5 1 4 6 9 9 9 7 6 6 4 3 3 4 4 9 6 1 2 7 10 11 12 12 14 19 24 27 30 32 31 29 26 26 24 21 19 21 26 30 31 31 31 31 32 32 31 31 30 29 29 28 27 25 23 22 21 21 19 18 17 18 18 18 19 20 21 22 22 21 21 21 22 22 23
2 4 6 8 6 7 7 4 9 14 9 3 4 4 4 2 1 2 4 4 4 4 6 8 6 5 9 6 2 2 6 9 11 11 11 12 17 23 27 31 31 30 28 25 24 24 22 21 22 26 28 29 28 28 28 28 28 29 29 29 28 29 30 31 32 32 30 30 29 27 25 22 20 19 19 19 20 20 21 22 23 22 22 23 23 24
3 1 2 4 7 5 2 3 8 14 9 4 5 4 5 4 4 2 0 3 2 3 8 14 12 9 9 5 5 5 6 9 9 8 9 11 15 22 27 29 30 29 27 24 23 23 24 24 25 27 28 28 27 27 26 26 26 26 26 26 26 25 25 26 26 26 26 26 27 28 28 27 25 23 21 20 20 20 21 22 22 23 22 22 23 24
8 6 5 4 9 6 1 2 4 7 7 4 3 3 2 3 4 4 3 1 4 6 10 16 13 11 10 7 4 7 7 8 9 8 10 11 14 21 24 24 25 26 26 26 26 27 28 29 29 29 29 29 28 27 26 25 25 24 23 22 21 20 20 20 20 19 19 20 21 23 25 27 28 29 27 25 22 20 20 20 20 20 20 20 20 21
7 10 9 6 8 8 5 2 1 1 3 4 3 4 3 3 2 1 2 3 5 7 11 11 8 7 10 11 11 9 7 9 9 10 12 12 13 19 20 19 20 20 22 26 29 31 32 33 33 32 31 30 29 28 26 24 23 22 21 20 19 18 17 17 17 17 17 18 18 19 20 22 24 26 28 28 26 23 20 18 16 15 15 15 15 15
5 7 8 7 7 9 9 5 4 3 4 7 5 5 6 4 3 6 5 3 4 8 11 6 6 5 4 8 15 15 14 14 11 14 18 17 17 18 16 14 16 18 20 24 29 33 34 35 35 34 33 32 30 28 27 25 23 22 21 19 18 17 16 15 14 14 14 14 14 14 14 14 15 16 18 20 21 20 19 17 15 13 11 10 9 9
8 9 6 7 5 9 12 12 12 5 4 8 7 7 9 6 5 8 6 7 8 5 6 2 5 6 4 5 10 11 14 18 21 23 22 21 20 18 15 13 15 18 20 24 29 33 35 35 35 35 34 32 31 29 27 25 23 22 21 19 18 17 16 15 14 13 13 13 13 12 12 12 11 10 10 10 10 10 10 10 10 8 7 6 6 5
8 12 8 8 7 10 13 14 13 6 2 5 5 6 10 8 7 7 3 6 6 2 3 2 3 5 4 5 6 4 5 11 20 23 20 19 19 14 14 16 17 19 22 25 29 32 34 35 35 34 33 32 31 29 27 26 24 23 22 20 19 18 17 16 15 15 14 14 13 13 12 11 11 10 9 8 7 7 6 5 4 3 2 2 2 3
7 9 2 2 4 6 10 9 9 10 6 2 4 7 6 4 5 6 4 1 2 3 5 4 3 3 3 7 7 5 4 4 10 15 14 15 14 12 14 16 17 19 23 26 29 32 33 34 34 33 32 31 30 29 28 26 25 23 22 21 20 19 19 18 16 15 14 13 13 12 11 10 9 8 6 6 5 4 4 3 2 2 1 1 2 3
8 10 4 4 8 8 8 6 4 8 6 3 5 7 2 1 1 2 4 2 0 6 6 6 8 7 5 6 5 6 6 6 8 9 7 7 9 13 16 16 18 21 23 26 28 31 32 33 33 32 32 31 30 30 29 27 25 23 22 20 20 20 19 18 16 15 14 13 11 10 9 8 7 6 4 3 2 2 1 1 1 1 2 3 3 5
3 8 5 5 9 6 1 4 5 9 7 3 4 3 4 2 3 3 5 5 5 8 6 7 12 8 7 6 4 6 10 11 9 7 5 6 9 14 16 18 20 22 25 28 30 32 33 33 33 33 32 31 31 30 29 28 26 25 23 21 21 20 19 18 16 15 13 11 10 8 7 6 5 4 2 1 1 1 2 3 3 4 4 5 6 7
2 4 4 1 3 3 4 2 6 6 5 1 3 3 1 4 5 4 6 6 7 9 7 7 9 5 6 7 6 9 12 10 7 6 7 9 13 17 20 22 24 27 29 31 33 34 34 34 33 33 32 31 30 29 28 27 26 25 24 22 21 20 18 17 15 13 11 10 8 7 5 4 3 2 2 2 3 4 4 6 6 7 8 8 9 9
3 5 6 2 2 3 2 3 5 6 5 2 3 5 3 3 2 2 4 3 5 7 7 8 8 5 3 5 9 13 11 8 9 9 9 11 16 20 22 25 28 30 32 34 36 36 36 35 33 32 30 29 28 27 27 26 25 24 23 21 19 18 16 15 13 12 10 8 7 5 4 3 2 1 3 3 4 5 6 7 8 9 10 11 11 12
3 4 6 6 5 6 6 5 5 6 5 3 5 6 6 7 5 5 6 4 3 4 5 7 9 6 3 1 5 7 6 5 8 9 9 11 16 19 21 26 29 31 33 35 37 38 37 36 35 33 31 29 28 27 26 24 24 23 21 19 17 16 14 13 11 10 8 6 5 4 2 1 1 2 4 4 5 7 7 8 9 9 11 11 12 14
5 2 3 6 6 6 8 7 5 5 3 3 4 3 5 6 6 9 10 6 5 5 4 5 7 6 3 1 2 3 4 4 5 7 7 8 10 14 18 23 28 31 34 37 39 39 38 37 35 34 32 30 29 27 26 24 22 21 19 18 16 15 13 11 10 8 7 5 4 2 1 1 2 3 4 5 7 7 8 9 9 10 11 12 13 14
6 1 2 5 6 7 8 8 5 1 0 3 4 3 4 4 4 8 9 6 6 8 6 6 7 5 2 2 2 3 3 3 5 8 9 6 7 13 18 23 27 30 33 37 39 39 38 37 35 34 32 31 29 27 25 23 22 20 19 17 16 14 13 11 10 9 7 6 4 3 2 1 1 2 3 5 6 7 8 8 9 10 10 11 12 13
6 3 2 4 5 6 5 4 4 3 2 2 3 2 2 0 3 6 5 2 4 8 9 9 7 5 3 3 4 5 6 5 6 6 7 9 11 16 21 25 28 31 34 37 39 39 38 37 35 33 32 30 28 27 25 23 21 20 19 17 15 15 13 12 11 10 9 8 7 6 5 3 3 3 3 4 5 6 7 7 8 9 10 10 11 12
5 4 3 3 4 5 5 4 4 4 2 2 3 4 1 2 2 3 3 3 4 5 8 8 5 4 4 5 7 8 7 6 8 9 7 6 14 19 23 26 28 32 36 38 39 39 37 36 34 32 31 29 28 26 24 23 21 20 19 17 16 15 14 13 12 10 10 9 7 7 5 4 4 3 3 3 4 5 5 6 7 8 9 10 11 12
2 3 4 5 5 5 6 7 8 9 8 7 6 5 4 2 3 2 2 4 4 3 5 6 5 6 7 4 7 7 6 5 5 7 8 5 9 18 24 27 29 32 35 37 38 38 36 35 33 32 30 28 27 25 23 22 21 19 19 18 17 15 14 13 12 10 10 9 7 6 5 4 3 2 2 2 3 3 4 5 6 7 8 9 10 11
2 5 7 8 9 8 8 9 10 11 11 12 10 8 8 8 4 3 4 5 4 4 4 2 2 6 7 3 3 4 4 4 2 4 6 6 3 13 20 25 28 30 33 35 36 36 35 34 32 30 29 27 26 24 23 21 20 19 18 17 16 15 14 13 11 10 9 8 7 5 4 4 3 2 1 2 2 3 3 4 5 6 7 9 10 11
3 6 7 8 10 9 8 8 8 8 9 10 11 10 11 10 7 7 7 6 5 4 4 5 4 4 5 3 3 3 2 2 0 4 6 4 2 9 16 22 26 29 32 34 34 35 34 32 31 28 26 25 24 23 22 21 20 18 17 16 14 14 14 12 11 10 9 7 6 5 4 4 2 2 2 3 4 4 5 5 6 6 7 8 9 10
2 3 6 8 10 9 7 8 9 9 9 10 11 11 11 10 8 8 8 7 6 6 6 7 7 7 5 4 3 3 3 3 6 10 12 11 6 5 10 16 20 24 29 30 31 31 31 29 27 25 23 22 21 20 20 19 19 17 15 15 13 12 13 11 10 10 9 6 5 5 4 3 2 2 2 3 4 5 6 6 7 7 7 7 8 9
3 5 8 8 8 8 7 9 10 9 9 9 11 12 11 9 7 6 7 7 5 5 6 6 7 7 3 1 0 2 3 4 8 11 13 15 13 7 3 5 11 14 17 20 21 22 23 23 23 22 21 20 18 17 16 16 16 15 13 13 12 11 12 10 9 9 8 5 5 4 3 2 1 1 2 3 3 4 5 6 7 7 8 8 8 9
2 4 5 5 6 7 7 9 10 9 9 10 10 10 10 9 7 4 4 5 5 5 6 5 5 5 1 1 2 6 9 8 8 10 11 14 18 16 11 10 9 9 9 9 9 10 12 14 16 17 18 18 18 16 14 14 14 13 11 12 11 11 11 9 7 8 7 5 4 2 1 1 1 1 2 2 3 4 5 5 6 7 8 8 9 9
4 3 3 4 7 7 7 7 9 8 8 7 6 7 7 7 6 4 3 5 5 4 4 3 3 3 2 3 3 6 9 8 10 13 14 13 15 19 18 15 14 13 11 8 6 5 4 6 9 12 14 16 17 16 15 13 13 11 10 11 12 11 12 10 8 9 8 7 6 4 2 1 1 2 3 3 3 4 4 5 6 7 8 8 9 9
7 7 5 5 5 6 7 7 7 7 8 5 3 5 6 6 7 7 6 5 3 1 2 2 3 5 2 2 5 6 7 9 13 16 18 17 16 16 18 17 15 13 12 10 8 7 6 4 5 8 11 14 15 16 16 16 15 14 12 13 14 15 15 14 12 11 11 10 8 7 5 4 2 2 3 3 4 5 5 6 6 6 7 8 9 9
9 8 6 4 4 5 5 5 6 8 7 4 2 3 5 7 7 7 3 3 7 8 7 6 7 9 7 4 7 12 15 19 22 24 25 23 21 19 18 17 14 12 11 10 9 9 8 7 7 7 8 11 12 12 13 14 16 19 18 16 18 18 17 16 14 13 13 12 11 9 7 6 4 2 3 4 5 5 6 6 7 7 8 8 9 9
11 9 6 5 5 5 4 6 8 6 3 5 6 4 3 3 2 3 1 5 11 11 9 7 8 9 10 9 9 14 17 20 24 26 26 25 23 22 20 17 13 11 10 11 11 10 10 8 8 7 7 7 8 8 9 10 13 18 20 20 19 18 17 16 15 15 15 14 12 11 9 8 6 3 3 4 5 6 7 7 7 8 8 9 9 10
11 9 6 5 6 6 5 7 7 5 6 8 4 3 3 3 3 2 1 4 10 13 11 8 8 10 12 11 8 5 3 7 12 17 23 25 23 21 20 17 13 11 10 10 10 11 11 10 8 7 6 6 4 4 6 8 10 14 18 19 19 18 18 17 16 16 16 14 13 12 11 9 7 5 4 4 6 7 7 8 8 8 9 9 10 10
11 9 8 6 6 6 6 6 5 5 7 5 2 5 6 7 6 4 1 2 7 14 16 11 9 11 12 13 16 16 9 1 4 8 20 25 21 19 19 17 14 11 9 8 7 8 9 8 7 6 5 4 4 3 3 4 6 9 13 16 18 19 19 19 18 18 17 16 15 14 12 10 8 6 5 5 6 7 8 8 9 9 10 10 10 11
9 9 8 7 6 6 5 6 6 6 6 1 3 7 12 14 11 5 2 2 5 15 19 14 11 12 13 14 18 16 6 2 3 6 18 23 19 17 17 16 15 12 9 8 6 5 6 6 5 4 4 3 2 2 3 3 1 3 7 12 16 19 21 21 20 19 18 18 16 14 12 10 9 7 6 6 7 8 9 9 10 10 11 11 11 12
5 5 5 6 7 8 8 6 4 3 2 3 6 12 20 22 12 5 5 2 6 16 19 15 13 14 16 17 17 10 4 3 3 8 16 18 14 13 15 15 15 13 11 10 9 7 6 5 4 3 3 3 3 4 4 3 2 1 5 10 15 19 21 21 20 19 19 18 17 15 13 11 10 8 8 7 8 9 10 11 11 11 12 12 12 13
2 2 4 5 7 9 10 8 5 2 2 5 11 19 25 20 6 4 3 2 8 15 16 15 14 15 17 17 14 9 8 8 8 9 14 15 12 12 13 12 12 12 12 11 10 9 8 7 6 6 5 5 5 5 4 3 2 2 6 9 12 15 18 18 18 19 19 19 17 15 13 11 10 9 8 8 8 10 11 12 12 13 14 14 14 14
3 3 3 2 3 5 6 5 4 2 3 11 18 18 17 8 3 2 6 8 9 13 14 13 14 15 16 16 13 11 11 12 10 9 13 15 13 12 12 11 10 10 10 11 10 10 10 10 9 9 8 8 7 6 5 4 3 2 4 6 9 11 13 14 15 17 17 18 17 15 13 11 10 9 9 9 9 10 12 13 13 14 15 15 16 15
1 2 3 2 2 3 2 1 1 2 5 20 20 9 8 6 1 5 11 10 9 13 13 11 13 15 16 15 15 14 13 12 11 10 12 14 13 12 12 11 11 10 10 10 10 10 11 10 10 11 10 10 9 7 6 5 4 4 3 5 7 8 9 10 12 14 15 15 14 13 11 10 10 9 9 9 10 11 13 13 14 15 16 16 16 16
1 1 1 1 3 2 2 1 1 4 6 18 15 6 6 7 6 9 11 10 11 13 13 11 12 14 15 15 15 14 13 12 12 11 11 12 13 12 11 11 11 11 10 10 9 10 10 10 10 11 10 10 9 8 8 7 7 7 7 8 7 7 8 9 11 12 13 13 12 11 11 10 10 9 9 10 10 11 13 13 14 15 16 16 15 15
2 3 1 1 2 1 0 2 2 2 3 12 14 10 8 9 10 11 10 9 12 13 13 13 13 14 15 15 14 13 12 13 13 11 10 11 11 11 11 10 10 10 10 10 9 8 8 8 8 8 8 8 9 9 9 10 10 9 10 10 10 10 11 11 12 13 13 13 12 11 11 10 10 9 9 10 10 11 12 13 14 15 15 16 15 15
5 7 4 1 1 2 3 6 5 4 6 10 10 10 11 11 12 14 11 11 13 14 13 14 13 13 15 15 14 13 13 13 12 11 10 9 9 10 10 9 9 9 9 8 8 7 7 7 6 6 6 6 7 8 9 10 10 11 11 11 11 12 13 13 13 13 12 12 11 11 10 10 10 10 9 10 10 11 12 12 12 14 15 15 15 16
6 9 5 1 0 1 1 4 5 4 6 9 9 10 13 13 14 15 14 13 14 15 15 14 13 11 12 13 13 14 14 13 13 12 11 10 10 10 10 9 9 9 8 8 8 8 7 7 7 7 6 6 6 6 7 9 10 11 12 12 12 12 13 14 14 13 12 12 12 11 11 11 10 10 10 10 10 11 11 12 12 13 14 15 16 16
4 9 6 1 3 3 3 3 9 5 4 7 12 14 16 16 15 16 16 16 16 16 17 16 14 11 11 13 13 13 13 13 12 12 11 11 11 10 10 9 8 7 7 7 7 6 7 7 8 8 7 7 7 7 8 9 10 11 12 13 14 13 13 15 15 15 14 13 12 12 11 11 11 10 10 10 11 11 12 12 13 13 14 15 16 16
7 7 5 2 3 2 4 4 14 6 6 2 11 18 19 16 15 17 19 19 20 20 20 20 16 11 10 13 13 13 12 12 11 11 11 11 11 10 9 9 8 6 6 7 7 7 7 7 8 8 8 8 8 8 8 9 10 11 12 13 14 14 13 14 15 15 15 14 13 12 11 11 11 10 10 10 11 12 12 12 12 13 14 15 15 16
5 3 3 3 2 0 1 6 10 5 5 6 12 19 20 16 15 18 20 20 22 22 22 22 20 14 11 12 13 13 13 12 11 10 10 10 10 10 9 8 7 6 6 7 7 8 8 8 8 8 8 8 8 8 9 10 10 11 12 13 14 14 14 14 14 15 15 14 13 12 12 11 11 11 11 11 11 11 12 13 13 13 13 14 15 15
4 2 4 4 3 3 5 8 8 6 8 11 15 20 20 15 15 19 20 20 22 22 22 22 21 17 15 14 13 13 14 13 12 11 10 9 9 9 9 8 8 7 6 7 7 8 8 9 8 8 8 8 8 8 8 9 10 10 11 12 13 13 14 14 14 14 15 14 13 12 11 11 11 11 11 11 11 11 11 12 13 13 13 14 14 15
Wind_Direction
118 192 220 210 212 211 210 208 221 251 42 25 229 233 242 250 258 260 307 287 351 268 252 236 253 267 263 252 258 270 272 269 268 267 263 265 268 267 264 259 255 254 254 254 253 251 248 247 244 240 236 237 243 247 248 251 255 249 241 238 238 238 241 240 238 237 238 234 223 222 228 229 227 228 230 236 242 242 240 238 233 232 233 232 233 233
110 223 235 217 218 214 211 225 243 268 282 278 274 280 275 251 257 259 205 284 16 210 255 254 266 270 266 253 242 261 269 259 253 256 256 253 256 261 264 263 260 258 257 256 255 254 251 249 247 246 243 240 240 240 243 245 245 244 239 235 234 235 235 235 233 232 235 237 224 219 230 238 238 234 232 234 238 239 242 244 236 228 224 228 233 236
187 249 247 214 195 192 207 220 229 245 256 265 266 291 282 259 270 287 241 237 182 203 261 292 278 269 269 255 234 246 253 254 252 250 252 249 247 250 253 257 259 259 257 255 254 253 252 251 249 248 245 241 236 233 237 240 237 236 236 233 231 230 228 226 228 228 229 234 235 235 239 242 242 240 238 236 236 236 236 240 240 230 224 224 223 223
223 257 253 204 168 177 212 216 211 238 252 242 237 246 262 266 292 280 273 231 207 227 265 306 299 276 274 260 242 244 246 256 259 254 254 250 243 245 247 248 250 253 257 256 253 249 245 246 247 246 243 239 233 227 229 231 229 229 229 228 226 225 224 222 225 228 229 231 234 235 237 239 241 241 241 240 240 242 242 242 244 241 236 233 230 229
231 236 167 135 159 184 207 210 198 220 245 234 226 225 247 258 238 238 286 9 302 274 247 281 305 284 269 254 247 247 244 251 255 251 252 250 243 243 245 246 247 250 256 260 261 253 243 239 239 239 236 234 228 221 220 223 224 224 223 222 222 220 221 223 224 227 229 230 231 231 232 236 240 243 244 243 242 243 246 247 249 248 246 244 242 241
248 224 141 103 143 184 203 220 201 194 229 254 231 223 233 245 242 243 314 42 328 289 226 200 273 278 278 263 254 254 249 249 249 244 245 247 244 240 242 244 246 248 250 252 260 262 248 237 233 229 225 223 220 215 213 214 216 218 218 217 218 218 219 221 223 226 230 231 233 235 235 238 242 246 248 249 246 243 244 246 249 250 250 250 249 247
248 212 190 181 178 185 206 236 211 178 194 262 234 214 222 234 241 240 212 154 235 269 272 138 209 266 295 273 246 241 258 264 259 257 252 250 245 238 238 242 244 245 244 243 248 253 250 238 229 222 215 212 210 208 206 207 208 210 212 213 215 216 216 218 220 225 231 235 240 243 246 248 248 250 251 252 252 250 247 246 247 248 249 250 250 250
187 181 175 178 188 191 214 238 204 162 173 248 228 166 195 218 228 227 212 203 227 263 325 104 179 267 277 258 239 194 239 275 275 272 264 255 249 242 238 239 242 243 241 238 238 240 242 238 228 219 211 206 204 202 202 203 205 206 208 209 211 212 213 218 223 228 234 240 246 251 254 256 257 256 256 255 256 257 256 253 251 250 250 251 251 251
132 154 172 178 193 205 219 230 172 161 187 249 186 128 178 207 216 214 204 215 242 258 264 214 188 255 268 265 28 149 229 258 263 258 258 251 246 244 241 237 238 240 239 234 232 233 234 232 225 217 210 204 202 201 201 202 204 207 210 212 215 218 223 229 238 246 252 254 256 258 262 264 265 265 263 262 261 261 262 261 259 256 254 254 254 254
111 136 178 177 194 216 218 195 154 173 205 215 121 79 58 68 101 180 187 192 227 236 231 227 196 219 267 259 148 182 232 237 246 251 256 256 247 245 244 239 236 235 233 228 226 227 226 221 216 211 207 203 202 202 203 205 206 208 212 215 220 224 228 233 238 246 253 257 258 258 262 265 267 269 269 268 266 264 264 264 264 263 261 259 258 257
245 162 256 205 216 228 201 176 178 189 192 124 111 74 43 33 47 43 67 131 193 239 236 232 207 198 257 265 174 204 220 214 228 247 256 260 252 245 245 243 238 235 231 223 217 215 212 208 204 204 204 203 202 202 204 206 207 209 211 213 215 216 218 221 225 231 238 244 248 251 254 259 262 266 268 269 269 268 268 267 267 267 267 266 264 262
256 251 260 227 220 216 152 222 211 199 187 134 120 111 57 333 22 20 0 127 210 233 233 233 212 195 235 261 211 211 222 217 213 227 244 251 251 248 247 245 241 237 231 221 211 207 204 199 197 197 199 200 200 199 200 201 203 204 205 207 208 206 206 209 212 218 225 230 235 239 242 248 253 258 263 266 269 270 271 271 271 272 272 272 271 269
242 236 234 232 221 188 171 233 304 279 200 169 142 139 200 277 358 338 247 207 226 241 241 230 198 195 228 249 249 232 236 241 220 217 232 239 249 252 252 247 241 235 225 214 207 204 201 197 196 195 195 197 197 197 196 196 197 198 199 201 203 202 201 204 209 214 221 225 227 229 230 234 239 244 251 256 261 265 268 270 272 273 275 275 276 275
261 251 222 229 235 185 174 204 225 233 193 180 168 170 204 220 226 232 225 239 251 251 259 231 179 222 221 231 247 238 230 235 233 233 236 239 248 255 259 250 239 234 222 211 205 202 199 196 195 194 193 193 192 192 192 191 192 192 192 193 194 193 190 193 198 201 206 208 207 208 209 211 216 221 229 236 243 249 253 257 261 264 268 272 277 279
258 275 212 189 213 181 187 216 221 202 154 192 190 186 206 191 201 228 215 232 245 250 275 213 169 224 194 199 240 239 231 228 232 239 239 244 250 252 255 240 227 226 216 207 203 198 196 193 190 190 189 189 187 185 185 183 182 182 180 180 183 181 174 174 176 175 178 177 172 171 170 170 173 175 180 189 199 211 220 230 237 243 250 259 273 287
234 259 233 202 200 173 189 216 214 190 162 214 190 190 220 205 205 241 213 199 220 261 280 208 204 234 220 255 270 268 259 230 232 240 237 241 247 242 239 228 217 214 205 199 197 192 190 187 185 185 182 181 180 177 175 172 171 172 170 169 171 169 163 160 159 157 157 156 153 151 151 150 150 150 148 145 144 147 153 165 179 190 208 237 282 315
240 255 258 226 241 193 205 218 196 195 203 187 179 200 227 210 197 248 275 144 144 251 244 202 244 269 251 275 263 225 266 255 237 243 233 235 238 224 224 219 209 204 196 192 190 186 184 182 180 180 177 175 171 168 166 163 164 167 165 164 163 159 156 153 152 152 150 148 147 144 143 143 139 137 136 131 128 124 120 115 113 103 66 27 358 345
260 268 241 203 251 246 230 237 233 229 215 150 201 202 142 31 129 162 261 294 204 252 245 207 230 230 207 253 245 194 224 244 237 241 235 229 222 216 218 211 202 197 190 186 184 182 180 177 176 174 172 169 165 162 161 159 160 162 161 161 160 156 153 151 150 149 147 144 143 140 138 137 135 131 127 124 119 108 93 53 8 349 339 334 330 329
291 282 253 206 242 263 210 212 252 262 236 193 241 211 125 219 231 161 216 244 241 250 252 228 237 233 203 230 250 204 218 228 228 233 227 214 212 214 210 199 193 189 184 182 179 178 176 174 172 169 165 162 160 160 159 159 160 159 158 158 156 153 151 149 147 145 144 143 142 143 142 143 145 146 150 168 215 273 288 294 298 300 301 303 307 307
318 281 275 112 230 309 15 205 219 243 240 208 303 293 183 215 211 195 221 236 241 251 259 244 244 243 204 206 215 223 226 221 215 222 225 222 221 214 202 192 187 182 180 178 176 175 173 170 168 164 162 159 158 159 159 158 158 156 154 152 152 150 147 145 144 142 143 144 145 148 149 158 173 186 221 246 263 274 280 284 288 293 294 295 298 299
291 263 266 276 234 267 299 234 223 234 240 221 233 251 257 238 232 272 254 237 233 243 249 248 249 252 226 198 206 220 227 212 201 211 222 227 225 216 202 193 185 179 177 176 174 172 169 166 163 161 160 160 159 159 157 156 155 152 150 148 147 146 144 144 145 145 146 147 148 152 156 174 199 237 266 277 285 287 289 292 293 295 296 298 300 300
284 266 274 271 254 247 236 228 227 231 235 231 226 230 228 225 240 265 254 231 223 230 225 238 251 252 252 241 220 227 236 218 208 216 226 231 225 214 201 192 184 177 175 174 171 168 165 163 161 160 160 160 159 157 154 153 152 149 148 146 146 146 145 146 145 145 147 144 142 148 158 196 291 300 301 304 304 305 306 306 305 306 306 307 306 305
297 276 285 271 263 273 269 252 226 208 216 240 231 233 247 238 228 240 246 242 241 245 233 240 254 251 239 264 268 267 264 255 245 237 246 258 234 207 193 185 180 176 174 172 169 166 164 162 162 161 160 158 157 154 152 151 150 148 147 146 144 145 145 144 142 140 138 135 135 142 134 341 315 313 317 316 314 317 319 318 319 319 318 319 317 316
312 283 263 281 289 295 286 272 264 259 209 249 234 214 243 253 245 249 254 251 242 243 243 249 255 258 283 300 285 301 300 289 271 244 236 240 214 194 186 178 175 174 171 169 166 164 163 163 162 161 159 156 154 153 151 150 148 146 145 143 141 142 141 138 137 136 133 133 133 127 112 87 18 357 345 332 331 334 333 335 337 336 336 335 333 332
308 307 300 312 308 298 302 309 319 357 43 274 273 245 219 336 343 302 288 280 247 226 220 238 250 250 287 340 10 15 17 10 338 299 251 211 187 182 179 175 174 172 169 167 164 163 163 163 161 159 156 154 152 150 149 146 144 143 140 138 137 136 136 134 132 132 132 131 129 123 115 100 75 46 16 356 355 353 349 353 353 351 351 349 347 347
287 278 284 298 291 290 304 317 321 317 309 295 290 274 255 83 48 314 297 263 249 211 207 232 252 262 294 345 11 16 24 21 5 351 324 227 188 178 174 172 173 172 169 167 165 164 163 161 158 155 152 150 149 147 146 144 142 141 138 135 133 131 131 131 130 128 128 126 121 118 110 95 79 58 32 17 8 358 357 359 353 350 350 347 348 348
275 247 265 268 268 278 285 292 306 302 286 276 267 258 273 265 199 196 238 251 273 275 236 228 218 238 261 316 357 359 13 20 18 13 352 309 194 177 173 171 172 172 170 168 166 165 163 159 157 154 151 149 147 145 144 142 140 139 136 133 131 130 129 128 126 124 123 120 113 108 103 94 84 71 45 20 357 349 351 347 339 340 340 339 342 341
276 272 277 269 265 268 273 288 306 306 291 281 275 270 276 277 252 216 227 256 304 312 270 240 189 228 246 271 326 325 355 9 23 58 24 349 218 177 171 169 170 171 170 168 167 167 164 161 159 156 154 152 149 146 144 142 140 138 136 133 129 128 129 125 121 121 119 116 112 106 103 99 86 70 33 348 336 330 323 319 321 325 328 332 333 332
262 266 271 270 270 268 270 283 297 302 296 288 283 278 275 275 268 251 247 255 269 268 281 323 326 267 271 284 251 248 268 281 108 105 97 79 171 179 172 170 170 170 169 169 170 169 166 164 163 161 159 156 152 150 147 146 146 142 139 137 131 128 130 126 122 126 125 120 117 112 101 87 59 27 355 338 330 322 316 316 317 315 320 324 325 327
258 271 281 283 281 276 280 292 294 295 297 296 292 283 273 269 265 261 262 256 245 249 270 294 297 280 277 273 239 244 253 180 121 108 110 111 117 161 176 174 170 169 169 170 171 170 168 168 168 167 166 162 158 155 152 151 150 146 143 142 136 133 136 133 130 135 134 127 126 118 103 80 48 18 351 334 325 323 324 322 318 315 318 320 320 324
271 276 289 292 285 280 284 288 285 282 284 290 294 289 277 268 259 253 259 251 233 246 252 255 277 284 285 300 346 29 25 74 95 94 100 110 116 115 110 144 152 156 160 162 166 170 172 174 177 177 176 175 170 164 159 157 155 152 149 149 148 147 146 141 136 140 142 138 138 127 103 86 62 20 337 320 311 312 314 312 313 314 314 315 318 321
258 271 296 297 279 276 280 281 281 282 279 273 275 281 274 262 248 231 234 229 214 235 245 234 257 270 254 58 31 53 51 46 44 41 56 88 109 111 84 60 78 99 113 130 146 164 176 183 189 191 191 190 190 184 175 169 166 162 159 161 164 163 161 156 149 153 157 157 158 153 90 78 25 347 327 314 305 302 299 297 301 303 303 307 311 314
233 256 281 267 267 273 269 274 285 288 279 263 245 245 250 251 247 233 234 246 235 227 233 227 242 255 189 150 100 65 56 50 39 26 24 44 82 102 95 69 58 66 74 82 88 102 149 187 204 210 209 207 208 207 203 196 186 180 178 179 181 181 178 177 173 172 179 184 187 196 215 227 295 326 318 312 306 297 293 291 290 292 294 299 302 305
233 240 245 241 255 265 263 278 293 275 263 267 220 200 219 246 255 249 250 260 260 278 290 282 343 352 329 156 124 99 82 75 65 51 42 37 45 69 85 78 64 60 67 78 83 84 96 132 183 207 213 217 222 223 222 222 216 211 208 202 200 199 195 193 189 187 191 198 202 205 207 211 240 292 303 306 302 296 292 290 288 288 290 294 296 299
243 239 238 235 240 252 254 265 271 255 248 270 273 224 236 247 244 240 249 16 23 10 353 358 11 359 348 24 96 114 107 91 75 59 50 45 38 38 52 66 68 63 63 71 79 83 88 103 127 151 173 193 207 214 217 222 223 222 221 217 213 211 207 202 199 198 200 204 209 210 209 211 225 254 289 302 300 296 294 291 290 289 290 292 293 294
240 240 236 232 238 246 232 228 244 259 301 308 304 306 287 263 232 220 182 49 32 18 8 9 5 353 353 21 76 112 113 94 74 55 43 40 36 31 34 47 61 68 63 62 68 75 79 89 102 113 126 147 168 181 185 192 209 220 222 221 221 220 216 212 208 207 207 209 210 212 211 212 219 239 280 301 300 297 295 290 288 290 289 290 291 291
227 231 231 229 226 229 232 234 246 278 290 283 297 32 33 4 349 317 175 69 34 19 12 7 2 355 351 356 9 27 82 92 71 45 31 29 29 31 34 38 49 66 71 68 68 69 71 76 81 84 91 98 110 143 160 167 184 205 217 222 224 224 223 220 217 216 216 215 214 212 210 210 214 230 263 290 298 296 293 288 287 287 287 287 288 289
224 222 222 228 225 219 230 239 244 255 251 238 94 49 15 351 327 304 224 105 32 15 12 12 7 358 351 345 339 330 321 11 92 25 15 17 20 28 34 35 40 56 68 72 74 67 63 62 59 56 61 65 70 81 102 135 165 189 207 218 222 224 225 225 224 225 224 221 218 215 213 215 220 231 255 279 292 293 289 287 287 285 285 286 286 287
232 228 223 230 231 218 220 228 233 238 237 257 14 337 331 332 319 293 217 155 13 7 10 14 9 359 355 345 336 328 316 125 110 12 4 7 12 25 33 35 38 48 59 65 67 63 51 45 38 28 16 358 7 43 52 48 83 191 209 218 223 226 228 229 229 229 226 223 220 218 219 224 228 237 254 273 287 292 290 288 288 286 285 285 285 286
240 229 222 231 233 230 230 231 231 226 227 6 346 317 317 321 311 248 194 181 356 359 7 14 8 1 357 347 345 355 36 56 20 356 358 2 11 28 37 38 39 44 54 58 55 51 47 45 47 42 17 351 0 19 32 45 55 191 216 221 225 228 231 233 233 232 229 224 221 219 222 226 231 239 253 268 281 290 292 291 290 288 286 286 286 287
297 254 231 230 231 233 230 230 244 225 94 3 323 313 318 319 295 181 190 279 331 345 1 12 6 360 359 356 1 19 26 12 1 358 5 10 18 32 39 44 46 46 50 52 48 42 39 36 36 39 37 36 36 27 26 48 85 193 214 221 227 231 234 237 236 233 228 222 219 218 219 224 230 239 252 265 279 288 291 291 291 289 288 289 289 290
352 340 300 258 254 255 231 228 255 213 60 347 320 315 330 335 180 174 320 312 326 344 356 6 5 1 357 358 2 2 357 359 4 17 25 20 18 28 37 42 49 52 51 50 46 41 38 35 32 34 37 38 35 24 18 16 351 285 235 228 230 231 232 233 230 225 220 216 215 216 218 223 232 243 256 268 279 287 289 289 288 288 289 290 291 293
12 327 321 340 339 306 238 223 255 200 356 348 336 332 11 21 270 313 325 327 352 360 354 353 2 2 355 351 352 350 350 356 4 21 32 24 19 30 40 39 42 48 47 44 41 37 34 30 27 28 30 30 26 19 14 5 339 317 281 247 236 228 227 226 223 220 218 217 218 220 225 231 239 249 260 268 276 282 285 287 288 289 290 291 292 294
50 330 329 8 10 346 251 278 220 216 327 360 14 55 58 28 7 347 342 348 360 358 352 348 352 356 354 348 345 345 349 357 2 10 23 24 18 23 34 39 39 40 41 40 38 33 28 24 23 21 18 16 13 6 357 343 327 318 307 293 281 265 250 239 231 227 226 226 227 231 236 241 247 253 260 266 271 277 280 283 287 288 289 291 292 293
11 335 282 266 5 45 31 19 78 177 359 29 50 62 51 36 23 11 7 3 357 354 354 349 342 346 352 349 347 349 350 355 0 3 10 16 13 14 25 33 34 35 36 33 28 24 21 19 16 10 4 3 359 353 346 335 323 313 304 299 294 283 267 253 242 235 232 231 232 234 238 243 249 254 260 265 270 276 279 282 285 287 289 291 293 294
13 350 314 236 134 113 76 43 53 75 51 47 54 48 37 31 19 14 16 9 359 355 353 347 340 342 347 347 350 354 351 351 356 358 0 5 7 10 17 22 27 33 33 28 24 19 10 1 351 342 342 347 346 343 338 328 316 306 296 291 288 283 277 267 254 244 236 233 234 238 241 246 251 255 260 266 270 275 277 279 281 284 287 290 292 293
22 2 348 150 191 291 95 40 22 44 64 53 46 33 21 14 10 11 10 1 357 355 352 350 347 342 343 346 349 349 350 352 351 351 355 359 0 5 9 11 16 19 16 16 16 10 1 350 340 332 330 330 330 329 323 314 306 300 294 288 284 280 278 274 265 254 245 240 240 243 247 250 254 258 262 267 271 274 276 277 279 282 285 287 290 291
353 355 357 74 339 313 169 66 4 351 143 80 42 23 8 0 358 359 358 354 354 354 353 354 355 348 341 345 344 343 349 354 350 347 350 350 349 356 2 3 5 3 360 360 356 352 352 347 340 338 333 328 325 318 310 305 301 297 293 289 284 279 275 274 270 263 256 251 247 246 247 250 255 260 264 268 271 273 275 278 280 283 284 286 288 290
310 329 338 308 313 274 176 14 359 346 191 135 17 6 357 350 343 345 347 347 349 352 351 353 358 354 341 340 342 340 344 350 350 348 348 343 340 344 350 354 355 351 344 338 334 337 342 337 333 334 330 326 325 317 308 303 298 295 293 289 284 280 274 270 268 263 258 255 251 249 248 250 253 257 261 266 270 272 275 277 280 282 285 287 289 290
326 330 337 307 290 178 111 3 1 341 251 291 334 343 343 337 332 337 340 341 345 348 347 347 350 349 342 342 343 339 338 343 347 345 345 342 336 334 340 345 347 344 336 329 325 325 324 322 323 324 321 318 318 313 306 302 299 297 295 290 285 281 274 268 265 261 257 254 252 250 251 252 255 258 261 264 268 273 278 281 283 284 286 288 290 292
2 2 342 321 297 307 326 339 339 314 289 292 308 325 330 324 324 332 335 337 341 343 342 341 342 341 339 341 343 340 336 338 341 339 340 341 332 328 333 337 339 342 339 331 322 315 313 314 315 314 313 313 311 306 303 301 299 296 293 289 284 279 272 266 262 259 257 256 254 252 254 256 259 263 266 269 272 274 276 282 286 288 290 291 291 292